owner,sensor,date,latitude,longitude,vertical_datum,wind_speed,wind_to_direction,wind_speed_of_gust,qcFlag 
ADCP,ioos:station:wmo:42362:1,2013-03-01T00:30:00Z,27.7950,-90.6480,122.0,8.7,320.0,99.0,'11111222,11111222,11144222' 
ADCP,ioos:station:wmo:42362:1,2013-03-01T01:30:00Z,27.7950,-90.6480,122.0,9.2,319.0,99.0,'11111222,11111222,11144222' 
ADCP,ioos:station:wmo:42362:1,2013-03-01T02:30:00Z,27.7950,-90.6480,122.0,9.4,323.0,99.0,'11111222,11111222,11144222' 
ADCP,ioos:station:wmo:42362:1,2013-03-01T03:30:00Z,27.7950,-90.6480,122.0,10.0,329.0,99.0,'11111222,11111222,11144222' 
ADCP,ioos:station:wmo:42362:1,2013-03-01T04:30:00Z,27.7950,-90.6480,122.0,10.0,333.0,99.0,'11111222,11111222,11144222' 
ADCP,ioos:station:wmo:42362:1,2013-03-01T05:30:00Z,27.7950,-90.6480,122.0,9.8,339.0,99.0,'11111222,11111222,11144222' 
ADCP,ioos:station:wmo:42362:1,2013-03-01T06:30:00Z,27.7950,-90.6480,122.0,9.9,346.0,99.0,'11111222,11111222,11144222' 
ADCP,ioos:station:wmo:42362:1,2013-03-01T07:30:00Z,27.7950,-90.6480,122.0,11.9,355.0,99.0,'11111222,11111222,11144222' 
ADCP,ioos:station:wmo:42362:1,2013-03-01T08:30:00Z,27.7950,-90.6480,122.0,10.9,354.0,99.0,'11111222,11111222,11144222' 
ADCP,ioos:station:wmo:42362:1,2013-03-01T09:30:00Z,27.7950,-90.6480,122.0,10.4,345.0,99.0,'11111222,11111222,11144222' 
ADCP,ioos:station:wmo:42362:1,2013-03-01T10:30:00Z,27.7950,-90.6480,122.0,10.9,339.0,99.0,'11111222,11111222,11144222' 
ADCP,ioos:station:wmo:42362:1,2013-03-01T11:30:00Z,27.7950,-90.6480,122.0,10.7,334.0,99.0,'11111222,11111222,11144222' 
ADCP,ioos:station:wmo:42362:1,2013-03-01T12:30:00Z,27.7950,-90.6480,122.0,10.4,330.0,99.0,'11111222,11111222,11144222' 
ADCP,ioos:station:wmo:42362:1,2013-03-01T13:30:00Z,27.7950,-90.6480,122.0,10.4,330.0,99.0,'11111222,11111222,11144222' 
ADCP,ioos:station:wmo:42362:1,2013-03-01T14:30:00Z,27.7950,-90.6480,122.0,10.2,329.0,99.0,'11111222,11111222,11144222' 
ADCP,ioos:station:wmo:42362:1,2013-03-01T15:30:00Z,27.7950,-90.6480,122.0,9.8,328.0,99.0,'11111222,11111222,11144222' 
ADCP,ioos:station:wmo:42362:1,2013-03-01T16:30:00Z,27.7950,-90.6480,122.0,9.8,326.0,99.0,'11111222,11111222,11144222' 
ADCP,ioos:station:wmo:42362:1,2013-03-01T17:30:00Z,27.7950,-90.6480,122.0,10.2,325.0,99.0,'11111222,11111222,11144222' 
ADCP,ioos:station:wmo:42362:1,2013-03-01T18:30:00Z,27.7950,-90.6480,122.0,10.8,321.0,99.0,'11111222,11111222,11144222' 
ADCP,ioos:station:wmo:42362:1,2013-03-01T19:30:00Z,27.7950,-90.6480,122.0,9.8,321.0,99.0,'11111222,11111222,11144222' 
ADCP,ioos:station:wmo:42362:1,2013-03-01T20:30:00Z,27.7950,-90.6480,122.0,10.0,318.0,99.0,'11111222,11111222,11144222' 
ADCP,ioos:station:wmo:42362:1,2013-03-01T21:30:00Z,27.7950,-90.6480,122.0,9.8,320.0,99.0,'11111222,11111222,11144222' 
ADCP,ioos:station:wmo:42362:1,2013-03-01T22:30:00Z,27.7950,-90.6480,122.0,10.5,320.0,99.0,'11111222,11111222,11144222' 
ADCP,ioos:station:wmo:42362:1,2013-03-01T23:30:00Z,27.7950,-90.6480,122.0,10.8,319.0,99.0,'11111222,11111222,11144222' 
ADCP,ioos:station:wmo:42362:1,2013-03-02T00:30:00Z,27.7950,-90.6480,122.0,10.2,320.0,99.0,'11111222,11111222,11144222' 
ADCP,ioos:station:wmo:42362:1,2013-03-02T01:30:00Z,27.7950,-90.6480,122.0,10.4,321.0,99.0,'11111222,11111222,11144222' 
ADCP,ioos:station:wmo:42362:1,2013-03-02T02:30:00Z,27.7950,-90.6480,122.0,10.8,324.0,99.0,'11111222,11111222,11144222' 
ADCP,ioos:station:wmo:42362:1,2013-03-02T03:30:00Z,27.7950,-90.6480,122.0,11.1,327.0,99.0,'11111222,11111222,11144222' 
ADCP,ioos:station:wmo:42362:1,2013-03-02T04:30:00Z,27.7950,-90.6480,122.0,10.8,329.0,99.0,'11111222,11111222,11144222' 
ADCP,ioos:station:wmo:42362:1,2013-03-02T05:30:00Z,27.7950,-90.6480,122.0,10.0,329.0,99.0,'11111222,11111222,11144222' 
ADCP,ioos:station:wmo:42362:1,2013-03-02T06:30:00Z,27.7950,-90.6480,122.0,8.0,318.0,99.0,'11111222,11111222,11144222' 
ADCP,ioos:station:wmo:42362:1,2013-03-02T07:30:00Z,27.7950,-90.6480,122.0,7.9,321.0,99.0,'11111222,11111222,11144222' 
ADCP,ioos:station:wmo:42362:1,2013-03-02T08:30:00Z,27.7950,-90.6480,122.0,8.3,315.0,99.0,'11111222,11111222,11144222' 
ADCP,ioos:station:wmo:42362:1,2013-03-02T09:30:00Z,27.7950,-90.6480,122.0,9.0,314.0,99.0,'11111222,11111222,11144222' 
ADCP,ioos:station:wmo:42362:1,2013-03-02T10:30:00Z,27.7950,-90.6480,122.0,8.6,322.0,99.0,'11111222,11111222,11144222' 
ADCP,ioos:station:wmo:42362:1,2013-03-02T11:30:00Z,27.7950,-90.6480,122.0,9.6,325.0,99.0,'11111222,11111222,11144222' 
ADCP,ioos:station:wmo:42362:1,2013-03-02T12:30:00Z,27.7950,-90.6480,122.0,11.1,325.0,99.0,'11111222,11111222,11144222' 
ADCP,ioos:station:wmo:42362:1,2013-03-02T13:30:00Z,27.7950,-90.6480,122.0,11.4,325.0,99.0,'11111222,11111222,11144222' 
ADCP,ioos:station:wmo:42362:1,2013-03-02T14:30:00Z,27.7950,-90.6480,122.0,11.4,329.0,99.0,'11111222,11111222,11144222' 
ADCP,ioos:station:wmo:42362:1,2013-03-02T15:30:00Z,27.7950,-90.6480,122.0,13.0,320.0,99.0,'11111222,11111222,11144222' 
ADCP,ioos:station:wmo:42362:1,2013-03-02T16:30:00Z,27.7950,-90.6480,122.0,12.9,323.0,99.0,'11111222,11111222,11144222' 
ADCP,ioos:station:wmo:42362:1,2013-03-02T17:30:00Z,27.7950,-90.6480,122.0,13.3,321.0,99.0,'11111222,11111222,11144222' 
ADCP,ioos:station:wmo:42362:1,2013-03-02T18:30:00Z,27.7950,-90.6480,122.0,13.8,317.0,99.0,'11111222,11111222,11144222' 
ADCP,ioos:station:wmo:42362:1,2013-03-02T19:30:00Z,27.7950,-90.6480,122.0,13.7,317.0,99.0,'11111222,11111222,11144222' 
ADCP,ioos:station:wmo:42362:1,2013-03-02T20:30:00Z,27.7950,-90.6480,122.0,13.2,312.0,99.0,'11111222,11111222,11144222' 
ADCP,ioos:station:wmo:42362:1,2013-03-02T21:30:00Z,27.7950,-90.6480,122.0,13.2,316.0,99.0,'11111222,11111222,11144222' 
ADCP,ioos:station:wmo:42362:1,2013-03-02T22:30:00Z,27.7950,-90.6480,122.0,13.4,320.0,99.0,'11111222,11111222,11144222' 
ADCP,ioos:station:wmo:42362:1,2013-03-02T23:30:00Z,27.7950,-90.6480,122.0,14.4,324.0,99.0,'11111222,11111222,11144222' 
ADCP,ioos:station:wmo:42362:1,2013-03-03T00:30:00Z,27.7950,-90.6480,122.0,14.0,328.0,99.0,'11111222,11111222,11144222' 
ADCP,ioos:station:wmo:42362:1,2013-03-03T01:30:00Z,27.7950,-90.6480,122.0,13.7,330.0,99.0,'11111222,11111222,11144222' 
ADCP,ioos:station:wmo:42362:1,2013-03-03T02:30:00Z,27.7950,-90.6480,122.0,12.3,330.0,99.0,'11111222,11111222,11144222' 
ADCP,ioos:station:wmo:42362:1,2013-03-03T03:30:00Z,27.7950,-90.6480,122.0,12.4,335.0,99.0,'11111222,11111222,11144222' 
ADCP,ioos:station:wmo:42362:1,2013-03-03T04:30:00Z,27.7950,-90.6480,122.0,13.5,342.0,99.0,'11111222,11111222,11144222' 
ADCP,ioos:station:wmo:42362:1,2013-03-03T05:30:00Z,27.7950,-90.6480,122.0,13.6,350.0,99.0,'11111222,11111222,11144222' 
ADCP,ioos:station:wmo:42362:1,2013-03-03T06:30:00Z,27.7950,-90.6480,122.0,12.9,356.0,99.0,'11111222,11111222,11144222' 
ADCP,ioos:station:wmo:42362:1,2013-03-03T07:30:00Z,27.7950,-90.6480,122.0,11.9,359.0,99.0,'11111222,11111222,11144222' 
ADCP,ioos:station:wmo:42362:1,2013-03-03T08:30:00Z,27.7950,-90.6480,122.0,10.9,355.0,99.0,'11111222,11111222,11144222' 
ADCP,ioos:station:wmo:42362:1,2013-03-03T09:30:00Z,27.7950,-90.6480,122.0,10.5,355.0,99.0,'11111222,11111222,11144222' 
ADCP,ioos:station:wmo:42362:1,2013-03-03T10:30:00Z,27.7950,-90.6480,122.0,9.5,357.0,99.0,'11111222,11111222,11144222' 
ADCP,ioos:station:wmo:42362:1,2013-03-03T11:30:00Z,27.7950,-90.6480,122.0,8.8,353.0,99.0,'11111222,11111222,11144222' 
ADCP,ioos:station:wmo:42362:1,2013-03-03T12:30:00Z,27.7950,-90.6480,122.0,8.1,347.0,99.0,'11111222,11111222,11144222' 
ADCP,ioos:station:wmo:42362:1,2013-03-03T13:30:00Z,27.7950,-90.6480,122.0,7.7,346.0,99.0,'11111222,11111222,11144222' 
ADCP,ioos:station:wmo:42362:1,2013-03-03T14:30:00Z,27.7950,-90.6480,122.0,6.9,344.0,99.0,'11111222,11111222,11144222' 
ADCP,ioos:station:wmo:42362:1,2013-03-03T15:30:00Z,27.7950,-90.6480,122.0,6.3,346.0,99.0,'11111222,11111222,11144222' 
ADCP,ioos:station:wmo:42362:1,2013-03-03T16:30:00Z,27.7950,-90.6480,122.0,5.4,338.0,99.0,'11111222,11111222,11144222' 
ADCP,ioos:station:wmo:42362:1,2013-03-03T17:30:00Z,27.7950,-90.6480,122.0,3.5,332.0,99.0,'11111222,11111222,11144222' 
ADCP,ioos:station:wmo:42362:1,2013-03-03T18:30:00Z,27.7950,-90.6480,122.0,3.4,328.0,99.0,'11111222,11111222,11144222' 
ADCP,ioos:station:wmo:42362:1,2013-03-03T19:30:00Z,27.7950,-90.6480,122.0,2.1,325.0,99.0,'11111222,11111222,11144222' 
ADCP,ioos:station:wmo:42362:1,2013-03-03T20:30:00Z,27.7950,-90.6480,122.0,2.2,298.0,99.0,'11111222,11111222,11144222' 
ADCP,ioos:station:wmo:42362:1,2013-03-03T21:30:00Z,27.7950,-90.6480,122.0,2.2,289.0,99.0,'11111222,11111222,11144222' 
ADCP,ioos:station:wmo:42362:1,2013-03-03T22:30:00Z,27.7950,-90.6480,122.0,1.3,303.0,99.0,'11111222,11111222,11144222' 
ADCP,ioos:station:wmo:42362:1,2013-03-03T23:30:00Z,27.7950,-90.6480,122.0,0.9,323.0,99.0,'11111222,11111222,11144222' 
ADCP,ioos:station:wmo:42362:1,2013-03-04T00:30:00Z,27.7950,-90.6480,122.0,1.1,334.0,99.0,'11111222,11111222,11144222' 
ADCP,ioos:station:wmo:42362:1,2013-03-04T01:30:00Z,27.7950,-90.6480,122.0,0.8,342.0,99.0,'11111222,11111222,11144222' 
ADCP,ioos:station:wmo:42362:1,2013-03-04T02:30:00Z,27.7950,-90.6480,122.0,0.2,359.0,99.0,'11111222,11111222,11144222' 
ADCP,ioos:station:wmo:42362:1,2013-03-04T03:30:00Z,27.7950,-90.6480,122.0,0.0,2.0,99.0,'11111222,11111222,11144222' 
ADCP,ioos:station:wmo:42362:1,2013-03-04T04:30:00Z,27.7950,-90.6480,122.0,1.3,110.0,99.0,'11111222,11111222,11144222' 
ADCP,ioos:station:wmo:42362:1,2013-03-04T05:30:00Z,27.7950,-90.6480,122.0,3.2,184.0,99.0,'11111222,11111222,11144222' 
ADCP,ioos:station:wmo:42362:1,2013-03-04T06:30:00Z,27.7950,-90.6480,122.0,4.2,188.0,99.0,'11111222,11111222,11144222' 
ADCP,ioos:station:wmo:42362:1,2013-03-04T07:30:00Z,27.7950,-90.6480,122.0,5.4,181.0,99.0,'11111222,11111222,11144222' 
ADCP,ioos:station:wmo:42362:1,2013-03-04T08:30:00Z,27.7950,-90.6480,122.0,5.6,177.0,99.0,'11111222,11111222,11144222' 
ADCP,ioos:station:wmo:42362:1,2013-03-04T09:30:00Z,27.7950,-90.6480,122.0,5.8,172.0,99.0,'11111222,11111222,11144222' 
ADCP,ioos:station:wmo:42362:1,2013-03-04T10:30:00Z,27.7950,-90.6480,122.0,7.1,176.0,99.0,'11111222,11111222,11144222' 
ADCP,ioos:station:wmo:42362:1,2013-03-04T11:30:00Z,27.7950,-90.6480,122.0,7.6,184.0,99.0,'11111222,11111222,11144222' 
ADCP,ioos:station:wmo:42362:1,2013-03-04T12:30:00Z,27.7950,-90.6480,122.0,7.6,185.0,99.0,'11111222,11111222,11144222' 
ADCP,ioos:station:wmo:42362:1,2013-03-04T13:30:00Z,27.7950,-90.6480,122.0,7.9,187.0,99.0,'11111222,11111222,11144222' 
ADCP,ioos:station:wmo:42362:1,2013-03-04T14:30:00Z,27.7950,-90.6480,122.0,9.0,192.0,99.0,'11111222,11111222,11144222' 
ADCP,ioos:station:wmo:42362:1,2013-03-04T15:30:00Z,27.7950,-90.6480,122.0,8.9,198.0,99.0,'11111222,11111222,11144222' 
ADCP,ioos:station:wmo:42362:1,2013-03-04T16:30:00Z,27.7950,-90.6480,122.0,10.2,194.0,99.0,'11111222,11111222,11144222' 
ADCP,ioos:station:wmo:42362:1,2013-03-04T17:30:00Z,27.7950,-90.6480,122.0,10.6,191.0,99.0,'11111222,11111222,11144222' 
ADCP,ioos:station:wmo:42362:1,2013-03-04T18:30:00Z,27.7950,-90.6480,122.0,10.8,195.0,99.0,'11111222,11111222,11144222' 
ADCP,ioos:station:wmo:42362:1,2013-03-04T19:30:00Z,27.7950,-90.6480,122.0,11.3,196.0,99.0,'11111222,11111222,11144222' 
ADCP,ioos:station:wmo:42362:1,2013-03-04T20:30:00Z,27.7950,-90.6480,122.0,10.3,192.0,99.0,'11111222,11111222,11144222' 
ADCP,ioos:station:wmo:42362:1,2013-03-04T21:30:00Z,27.7950,-90.6480,122.0,10.7,197.0,99.0,'11111222,11111222,11144222' 
ADCP,ioos:station:wmo:42362:1,2013-03-04T22:30:00Z,27.7950,-90.6480,122.0,10.5,197.0,99.0,'11111222,11111222,11144222' 
ADCP,ioos:station:wmo:42362:1,2013-03-04T23:30:00Z,27.7950,-90.6480,122.0,10.4,196.0,99.0,'11111222,11111222,11144222' 
ADCP,ioos:station:wmo:42362:1,2013-03-05T00:30:00Z,27.7950,-90.6480,122.0,10.7,193.0,99.0,'11111222,11111222,11144222' 
ADCP,ioos:station:wmo:42362:1,2013-03-05T01:30:00Z,27.7950,-90.6480,122.0,10.8,192.0,99.0,'11111222,11111222,11144222' 
ADCP,ioos:station:wmo:42362:1,2013-03-05T02:30:00Z,27.7950,-90.6480,122.0,10.6,190.0,99.0,'11111222,11111222,11144222' 
ADCP,ioos:station:wmo:42362:1,2013-03-05T03:30:00Z,27.7950,-90.6480,122.0,11.9,190.0,99.0,'11111222,11111222,11144222' 
ADCP,ioos:station:wmo:42362:1,2013-03-05T04:30:00Z,27.7950,-90.6480,122.0,13.9,193.0,99.0,'11111222,11111222,11144222' 
ADCP,ioos:station:wmo:42362:1,2013-03-05T05:30:00Z,27.7950,-90.6480,122.0,14.0,189.0,99.0,'11111222,11111222,11144222' 
ADCP,ioos:station:wmo:42362:1,2013-03-05T06:30:00Z,27.7950,-90.6480,122.0,16.3,192.0,99.0,'11111222,11111222,11144222' 
ADCP,ioos:station:wmo:42362:1,2013-03-05T07:30:00Z,27.7950,-90.6480,122.0,16.2,194.0,99.0,'11111222,11111222,11144222' 
ADCP,ioos:station:wmo:42362:1,2013-03-05T08:30:00Z,27.7950,-90.6480,122.0,15.9,194.0,99.0,'11111222,11111222,11144222' 
ADCP,ioos:station:wmo:42362:1,2013-03-05T09:30:00Z,27.7950,-90.6480,122.0,14.5,198.0,99.0,'11111222,11111222,11144222' 
ADCP,ioos:station:wmo:42362:1,2013-03-05T10:30:00Z,27.7950,-90.6480,122.0,14.2,199.0,99.0,'11111222,11111222,11144222' 
ADCP,ioos:station:wmo:42362:1,2013-03-05T11:30:00Z,27.7950,-90.6480,122.0,13.1,205.0,99.0,'11111222,11111222,11144222' 
ADCP,ioos:station:wmo:42362:1,2013-03-05T12:30:00Z,27.7950,-90.6480,122.0,9.9,202.0,99.0,'11111222,11111222,11144222' 
ADCP,ioos:station:wmo:42362:1,2013-03-05T13:30:00Z,27.7950,-90.6480,122.0,12.1,193.0,99.0,'11111222,11111222,11144222' 
ADCP,ioos:station:wmo:42362:1,2013-03-05T14:30:00Z,27.7950,-90.6480,122.0,13.1,195.0,99.0,'11111222,11111222,11144222' 
ADCP,ioos:station:wmo:42362:1,2013-03-05T15:30:00Z,27.7950,-90.6480,122.0,13.5,205.0,99.0,'11111222,11111222,11144222' 
ADCP,ioos:station:wmo:42362:1,2013-03-05T16:30:00Z,27.7950,-90.6480,122.0,99.0,287.0,99.0,'11144222,11111222,11144222' 
ADCP,ioos:station:wmo:42362:1,2013-03-05T17:30:00Z,27.7950,-90.6480,122.0,99.0,294.0,99.0,'11144222,11111222,11144222' 
ADCP,ioos:station:wmo:42362:1,2013-03-05T18:30:00Z,27.7950,-90.6480,122.0,12.5,294.0,99.0,'11111222,11111222,11144222' 
ADCP,ioos:station:wmo:42362:1,2013-03-05T19:30:00Z,27.7950,-90.6480,122.0,7.6,240.0,99.0,'11111222,11111222,11144222' 
ADCP,ioos:station:wmo:42362:1,2013-03-05T20:30:00Z,27.7950,-90.6480,122.0,7.2,236.0,99.0,'11111222,11111222,11144222' 
ADCP,ioos:station:wmo:42362:1,2013-03-05T21:30:00Z,27.7950,-90.6480,122.0,7.1,233.0,99.0,'11111222,11111222,11144222' 
ADCP,ioos:station:wmo:42362:1,2013-03-05T22:30:00Z,27.7950,-90.6480,122.0,7.4,241.0,99.0,'11111222,11111222,11144222' 
ADCP,ioos:station:wmo:42362:1,2013-03-05T23:30:00Z,27.7950,-90.6480,122.0,7.0,248.0,99.0,'11111222,11111222,11144222' 
ADCP,ioos:station:wmo:42362:1,2013-03-06T00:30:00Z,27.7950,-90.6480,122.0,6.6,270.0,99.0,'11111222,11111222,11144222' 
ADCP,ioos:station:wmo:42362:1,2013-03-06T01:30:00Z,27.7950,-90.6480,122.0,4.8,281.0,99.0,'11111222,11111222,11144222' 
ADCP,ioos:station:wmo:42362:1,2013-03-06T02:30:00Z,27.7950,-90.6480,122.0,8.2,312.0,99.0,'11111222,11111222,11144222' 
ADCP,ioos:station:wmo:42362:1,2013-03-06T03:30:00Z,27.7950,-90.6480,122.0,11.5,329.0,99.0,'11111222,11111222,11144222' 
ADCP,ioos:station:wmo:42362:1,2013-03-06T04:30:00Z,27.7950,-90.6480,122.0,12.2,338.0,99.0,'11111222,11111222,11144222' 
ADCP,ioos:station:wmo:42362:1,2013-03-06T05:30:00Z,27.7950,-90.6480,122.0,11.7,350.0,99.0,'11111222,11111222,11144222' 
ADCP,ioos:station:wmo:42362:1,2013-03-06T06:30:00Z,27.7950,-90.6480,122.0,13.0,359.0,99.0,'11111222,11111222,11144222' 
ADCP,ioos:station:wmo:42362:1,2013-03-06T07:30:00Z,27.7950,-90.6480,122.0,13.7,3.0,99.0,'11111222,11111222,11144222' 
ADCP,ioos:station:wmo:42362:1,2013-03-06T08:30:00Z,27.7950,-90.6480,122.0,13.8,5.0,99.0,'11111222,11111222,11144222' 
ADCP,ioos:station:wmo:42362:1,2013-03-06T09:30:00Z,27.7950,-90.6480,122.0,14.0,11.0,99.0,'11111222,11111222,11144222' 
ADCP,ioos:station:wmo:42362:1,2013-03-06T10:30:00Z,27.7950,-90.6480,122.0,13.5,14.0,99.0,'11111222,11111222,11144222' 
ADCP,ioos:station:wmo:42362:1,2013-03-06T11:30:00Z,27.7950,-90.6480,122.0,13.2,17.0,99.0,'11111222,11111222,11144222' 
ADCP,ioos:station:wmo:42362:1,2013-03-06T12:30:00Z,27.7950,-90.6480,122.0,12.8,19.0,99.0,'11111222,11111222,11144222' 
ADCP,ioos:station:wmo:42362:1,2013-03-06T13:30:00Z,27.7950,-90.6480,122.0,11.6,23.0,99.0,'11111222,11111222,11144222' 
ADCP,ioos:station:wmo:42362:1,2013-03-06T14:30:00Z,27.7950,-90.6480,122.0,10.4,25.0,99.0,'11111222,11111222,11144222' 
ADCP,ioos:station:wmo:42362:1,2013-03-06T15:30:00Z,27.7950,-90.6480,122.0,9.5,27.0,99.0,'11111222,11111222,11144222' 
ADCP,ioos:station:wmo:42362:1,2013-03-06T16:30:00Z,27.7950,-90.6480,122.0,8.5,30.0,99.0,'11111222,11111222,11144222' 
ADCP,ioos:station:wmo:42362:1,2013-03-06T17:30:00Z,27.7950,-90.6480,122.0,7.0,30.0,99.0,'11111222,11111222,11144222' 
ADCP,ioos:station:wmo:42362:1,2013-03-06T18:30:00Z,27.7950,-90.6480,122.0,6.4,27.0,99.0,'11111222,11111222,11144222' 
ADCP,ioos:station:wmo:42362:1,2013-03-06T19:30:00Z,27.7950,-90.6480,122.0,6.2,26.0,99.0,'11111222,11111222,11144222' 
ADCP,ioos:station:wmo:42362:1,2013-03-06T20:30:00Z,27.7950,-90.6480,122.0,6.0,14.0,99.0,'11111222,11111222,11144222' 
ADCP,ioos:station:wmo:42362:1,2013-03-06T21:30:00Z,27.7950,-90.6480,122.0,5.0,12.0,99.0,'11111222,11111222,11144222' 
ADCP,ioos:station:wmo:42362:1,2013-03-06T22:30:00Z,27.7950,-90.6480,122.0,5.2,358.0,99.0,'11111222,11111222,11144222' 
ADCP,ioos:station:wmo:42362:1,2013-03-06T23:30:00Z,27.7950,-90.6480,122.0,5.2,356.0,99.0,'11111222,11111222,11144222' 
ADCP,ioos:station:wmo:42362:1,2013-03-07T00:30:00Z,27.7950,-90.6480,122.0,4.8,355.0,99.0,'11111222,11111222,11144222' 
ADCP,ioos:station:wmo:42362:1,2013-03-07T01:30:00Z,27.7950,-90.6480,122.0,5.5,2.0,99.0,'11111222,11111222,11144222' 
ADCP,ioos:station:wmo:42362:1,2013-03-07T02:30:00Z,27.7950,-90.6480,122.0,4.3,358.0,99.0,'11111222,11111222,11144222' 
ADCP,ioos:station:wmo:42362:1,2013-03-07T03:30:00Z,27.7950,-90.6480,122.0,4.2,355.0,99.0,'11111222,11111222,11144222' 
ADCP,ioos:station:wmo:42362:1,2013-03-07T04:30:00Z,27.7950,-90.6480,122.0,4.4,4.0,99.0,'11111222,11111222,11144222' 
ADCP,ioos:station:wmo:42362:1,2013-03-07T05:30:00Z,27.7950,-90.6480,122.0,4.5,17.0,99.0,'11111222,11111222,11144222' 
ADCP,ioos:station:wmo:42362:1,2013-03-07T06:30:00Z,27.7950,-90.6480,122.0,3.7,34.0,99.0,'11111222,11111222,11144222' 
ADCP,ioos:station:wmo:42362:1,2013-03-07T07:30:00Z,27.7950,-90.6480,122.0,3.4,41.0,99.0,'11111222,11111222,11144222' 
ADCP,ioos:station:wmo:42362:1,2013-03-07T08:30:00Z,27.7950,-90.6480,122.0,3.7,56.0,99.0,'11111222,11111222,11144222' 
ADCP,ioos:station:wmo:42362:1,2013-03-07T09:30:00Z,27.7950,-90.6480,122.0,2.3,72.0,99.0,'11111222,11111222,11144222' 
ADCP,ioos:station:wmo:42362:1,2013-03-07T10:30:00Z,27.7950,-90.6480,122.0,1.4,27.0,99.0,'11111222,11111222,11144222' 
ADCP,ioos:station:wmo:42362:1,2013-03-07T11:30:00Z,27.7950,-90.6480,122.0,1.6,16.0,99.0,'11111222,11111222,11144222' 
ADCP,ioos:station:wmo:42362:1,2013-03-07T12:30:00Z,27.7950,-90.6480,122.0,1.5,23.0,99.0,'11111222,11111222,11144222' 
ADCP,ioos:station:wmo:42362:1,2013-03-07T13:30:00Z,27.7950,-90.6480,122.0,2.8,62.0,99.0,'11111222,11111222,11144222' 
ADCP,ioos:station:wmo:42362:1,2013-03-07T14:30:00Z,27.7950,-90.6480,122.0,3.6,63.0,99.0,'11111222,11111222,11144222' 
ADCP,ioos:station:wmo:42362:1,2013-03-07T15:30:00Z,27.7950,-90.6480,122.0,4.3,65.0,99.0,'11111222,11111222,11144222' 
ADCP,ioos:station:wmo:42362:1,2013-03-07T16:30:00Z,27.7950,-90.6480,122.0,5.1,58.0,99.0,'11111222,11111222,11144222' 
ADCP,ioos:station:wmo:42362:1,2013-03-07T17:30:00Z,27.7950,-90.6480,122.0,4.5,62.0,99.0,'11111222,11111222,11144222' 
ADCP,ioos:station:wmo:42362:1,2013-03-07T18:30:00Z,27.7950,-90.6480,122.0,3.6,80.0,99.0,'11111222,11111222,11144222' 
ADCP,ioos:station:wmo:42362:1,2013-03-07T19:30:00Z,27.7950,-90.6480,122.0,3.4,74.0,99.0,'11111222,11111222,11144222' 
ADCP,ioos:station:wmo:42362:1,2013-03-07T20:30:00Z,27.7950,-90.6480,122.0,3.6,72.0,99.0,'11111222,11111222,11144222' 
ADCP,ioos:station:wmo:42362:1,2013-03-07T21:30:00Z,27.7950,-90.6480,122.0,3.8,78.0,99.0,'11111222,11111222,11144222' 
ADCP,ioos:station:wmo:42362:1,2013-03-07T22:30:00Z,27.7950,-90.6480,122.0,4.1,81.0,99.0,'11111222,11111222,11144222' 
ADCP,ioos:station:wmo:42362:1,2013-03-07T23:30:00Z,27.7950,-90.6480,122.0,4.5,87.0,99.0,'11111222,11111222,11144222' 
ADCP,ioos:station:wmo:42362:1,2013-03-08T00:30:00Z,27.7950,-90.6480,122.0,5.0,88.0,99.0,'11111222,11111222,11144222' 
ADCP,ioos:station:wmo:42362:1,2013-03-08T01:30:00Z,27.7950,-90.6480,122.0,5.0,90.0,99.0,'11111222,11111222,11144222' 
ADCP,ioos:station:wmo:42362:1,2013-03-08T02:30:00Z,27.7950,-90.6480,122.0,4.7,95.0,99.0,'11111222,11111222,11144222' 
ADCP,ioos:station:wmo:42362:1,2013-03-08T03:30:00Z,27.7950,-90.6480,122.0,5.0,100.0,99.0,'11111222,11111222,11144222' 
ADCP,ioos:station:wmo:42362:1,2013-03-08T04:30:00Z,27.7950,-90.6480,122.0,4.7,103.0,99.0,'11111222,11111222,11144222' 
ADCP,ioos:station:wmo:42362:1,2013-03-08T05:30:00Z,27.7950,-90.6480,122.0,4.0,98.0,99.0,'11111222,11111222,11144222' 
ADCP,ioos:station:wmo:42362:1,2013-03-08T06:30:00Z,27.7950,-90.6480,122.0,3.8,99.0,99.0,'11111222,11111222,11144222' 
ADCP,ioos:station:wmo:42362:1,2013-03-08T07:30:00Z,27.7950,-90.6480,122.0,4.1,102.0,99.0,'11111222,11111222,11144222' 
ADCP,ioos:station:wmo:42362:1,2013-03-08T08:30:00Z,27.7950,-90.6480,122.0,4.9,103.0,99.0,'11111222,11111222,11144222' 
ADCP,ioos:station:wmo:42362:1,2013-03-08T09:30:00Z,27.7950,-90.6480,122.0,4.5,111.0,99.0,'11111222,11111222,11144222' 
ADCP,ioos:station:wmo:42362:1,2013-03-08T10:30:00Z,27.7950,-90.6480,122.0,3.7,112.0,99.0,'11111222,11111222,11144222' 
ADCP,ioos:station:wmo:42362:1,2013-03-08T11:30:00Z,27.7950,-90.6480,122.0,3.8,104.0,99.0,'11111222,11111222,11144222' 
ADCP,ioos:station:wmo:42362:1,2013-03-08T12:30:00Z,27.7950,-90.6480,122.0,4.1,93.0,99.0,'11111222,11111222,11144222' 
ADCP,ioos:station:wmo:42362:1,2013-03-08T13:30:00Z,27.7950,-90.6480,122.0,4.7,87.0,99.0,'11111222,11111222,11144222' 
ADCP,ioos:station:wmo:42362:1,2013-03-08T14:30:00Z,27.7950,-90.6480,122.0,4.8,88.0,99.0,'11111222,11111222,11144222' 
ADCP,ioos:station:wmo:42362:1,2013-03-08T15:30:00Z,27.7950,-90.6480,122.0,4.4,85.0,99.0,'11111222,11111222,11144222' 
ADCP,ioos:station:wmo:42362:1,2013-03-08T16:30:00Z,27.7950,-90.6480,122.0,3.7,86.0,99.0,'11111222,11111222,11144222' 
ADCP,ioos:station:wmo:42362:1,2013-03-08T17:30:00Z,27.7950,-90.6480,122.0,3.5,82.0,99.0,'11111222,11111222,11144222' 
ADCP,ioos:station:wmo:42362:1,2013-03-08T18:30:00Z,27.7950,-90.6480,122.0,3.6,77.0,99.0,'11111222,11111222,11144222' 
ADCP,ioos:station:wmo:42362:1,2013-03-08T19:30:00Z,27.7950,-90.6480,122.0,3.6,78.0,99.0,'11111222,11111222,11144222' 
ADCP,ioos:station:wmo:42362:1,2013-03-08T20:30:00Z,27.7950,-90.6480,122.0,3.7,83.0,99.0,'11111222,11111222,11144222' 
ADCP,ioos:station:wmo:42362:1,2013-03-08T21:30:00Z,27.7950,-90.6480,122.0,4.7,82.0,99.0,'11111222,11111222,11144222' 
ADCP,ioos:station:wmo:42362:1,2013-03-08T22:30:00Z,27.7950,-90.6480,122.0,5.8,88.0,99.0,'11111222,11111222,11144222' 
ADCP,ioos:station:wmo:42362:1,2013-03-08T23:30:00Z,27.7950,-90.6480,122.0,6.7,83.0,99.0,'11111222,11111222,11144222' 
ADCP,ioos:station:wmo:42362:1,2013-03-09T00:30:00Z,27.7950,-90.6480,122.0,7.5,84.0,99.0,'11111222,11111222,11144222' 
ADCP,ioos:station:wmo:42362:1,2013-03-09T01:30:00Z,27.7950,-90.6480,122.0,6.8,93.0,99.0,'11111222,11111222,11144222' 
ADCP,ioos:station:wmo:42362:1,2013-03-09T02:30:00Z,27.7950,-90.6480,122.0,6.2,101.0,99.0,'11111222,11111222,11144222' 
ADCP,ioos:station:wmo:42362:1,2013-03-09T03:30:00Z,27.7950,-90.6480,122.0,5.0,118.0,99.0,'11111222,11111222,11144222' 
ADCP,ioos:station:wmo:42362:1,2013-03-09T04:30:00Z,27.7950,-90.6480,122.0,5.0,118.0,99.0,'11111222,11111222,11144222' 
ADCP,ioos:station:wmo:42362:1,2013-03-09T05:30:00Z,27.7950,-90.6480,122.0,5.2,119.0,99.0,'11111222,11111222,11144222' 
ADCP,ioos:station:wmo:42362:1,2013-03-09T06:30:00Z,27.7950,-90.6480,122.0,5.1,117.0,99.0,'11111222,11111222,11144222' 
ADCP,ioos:station:wmo:42362:1,2013-03-09T07:30:00Z,27.7950,-90.6480,122.0,7.1,116.0,99.0,'11111222,11111222,11144222' 